TimeAKDT,TemperatureF,Dew PointF,Humidity,Sea Level PressureIn,VisibilityMPH,Wind Direction,Wind SpeedMPH,Gust SpeedMPH,PrecipitationIn,Events,Conditions,WindDirDegrees,DateUTC
12:16 AM,55.4,44.6,67,30.00,10.0,West,3.5,-,N/A,,Unknown,270,2013-07-22 08:16:00
12:36 AM,53.6,44.6,72,30.00,10.0,Calm,Calm,-,N/A,,Unknown,0,2013-07-22 08:36:00
12:56 AM,53.6,44.6,72,30.00,10.0,Calm,Calm,-,N/A,,Unknown,0,2013-07-22 08:56:00
1:16 AM,53.6,44.6,72,30.01,10.0,Calm,Calm,-,N/A,,Unknown,0,2013-07-22 09:16:00
1:36 AM,53.6,44.6,72,30.01,10.0,Calm,Calm,-,N/A,,Unknown,0,2013-07-22 09:36:00
1:56 AM,50.0,41.0,71,30.02,10.0,Calm,Calm,-,N/A,,Unknown,0,2013-07-22 09:56:00
2:16 AM,48.2,41.0,76,30.03,10.0,SSE,4.6,-,N/A,,Unknown,160,2013-07-22 10:16:00
2:36 AM,50.0,42.8,76,30.03,10.0,Calm,Calm,-,N/A,,Unknown,0,2013-07-22 10:36:00
2:56 AM,51.8,42.8,71,30.03,10.0,Calm,Calm,-,N/A,,Unknown,0,2013-07-22 10:56:00
3:16 AM,48.2,41.0,76,30.03,10.0,Calm,Calm,-,N/A,,Unknown,0,2013-07-22 11:16:00
3:36 AM,46.4,39.2,76,30.04,10.0,Calm,Calm,-,N/A,,Unknown,0,2013-07-22 11:36:00
3:56 AM,48.2,41.0,76,30.04,10.0,Calm,Calm,-,N/A,,Unknown,0,2013-07-22 11:56:00
4:16 AM,46.4,39.2,76,30.04,10.0,Calm,Calm,-,N/A,,Unknown,0,2013-07-22 12:16:00
4:36 AM,44.6,37.4,76,30.04,10.0,ESE,3.5,-,N/A,,Unknown,110,2013-07-22 12:36:00
4:56 AM,46.4,39.2,76,30.04,10.0,Calm,Calm,-,N/A,,Unknown,0,2013-07-22 12:56:00
5:16 AM,44.6,37.4,76,30.04,10.0,Calm,Calm,-,N/A,,Unknown,0,2013-07-22 13:16:00
5:36 AM,44.6,37.4,76,30.04,10.0,Calm,Calm,-,N/A,,Unknown,0,2013-07-22 13:36:00
5:56 AM,44.6,37.4,76,30.04,10.0,Calm,Calm,-,N/A,,Unknown,0,2013-07-22 13:56:00
6:16 AM,44.6,39.2,81,30.05,10.0,Calm,Calm,-,N/A,,Unknown,0,2013-07-22 14:16:00
6:36 AM,46.4,41.0,81,30.05,10.0,Calm,Calm,-,N/A,,Unknown,0,2013-07-22 14:36:00
6:56 AM,50.0,42.8,76,30.06,9.0,Calm,Calm,-,N/A,,Unknown,0,2013-07-22 14:56:00
7:16 AM,53.6,42.8,67,30.06,10.0,Calm,Calm,-,N/A,,Unknown,0,2013-07-22 15:16:00
7:36 AM,53.6,44.6,72,30.06,10.0,Calm,Calm,-,N/A,,Unknown,0,2013-07-22 15:36:00
7:56 AM,57.2,44.6,63,30.07,10.0,Calm,Calm,-,N/A,,Unknown,0,2013-07-22 15:56:00
8:16 AM,59.0,46.4,63,30.07,10.0,Calm,Calm,-,N/A,,Unknown,0,2013-07-22 16:16:00
8:36 AM,62.6,46.4,55,30.07,10.0,Calm,Calm,-,N/A,,Unknown,0,2013-07-22 16:36:00
8:56 AM,62.6,46.4,55,30.07,10.0,Calm,Calm,-,N/A,,Unknown,0,2013-07-22 16:56:00
9:16 AM,64.4,46.4,52,30.07,10.0,Calm,Calm,-,N/A,,Unknown,0,2013-07-22 17:16:00
9:36 AM,64.4,46.4,52,30.07,10.0,NE,5.8,-,N/A,,Unknown,40,2013-07-22 17:36:00
9:56 AM,64.4,46.4,52,30.07,10.0,NE,6.9,-,N/A,,Unknown,40,2013-07-22 17:56:00
10:16 AM,66.2,46.4,49,30.06,10.0,Calm,Calm,-,N/A,,Unknown,0,2013-07-22 18:16:00
10:36 AM,66.2,46.4,49,30.06,10.0,North,5.8,-,N/A,,Unknown,350,2013-07-22 18:36:00
10:56 AM,68.0,44.6,43,30.07,10.0,North,6.9,-,N/A,,Unknown,10,2013-07-22 18:56:00
11:16 AM,69.8,44.6,40,30.06,10.0,North,9.2,-,N/A,,Unknown,10,2013-07-22 19:16:00
11:36 AM,69.8,44.6,40,30.06,10.0,North,5.8,-,N/A,,Unknown,360,2013-07-22 19:36:00
11:56 AM,69.8,44.6,40,30.06,10.0,NE,8.1,-,N/A,,Unknown,50,2013-07-22 19:56:00
12:16 PM,71.6,44.6,38,30.06,10.0,North,5.8,-,N/A,,Unknown,360,2013-07-22 20:16:00
12:36 PM,71.6,44.6,38,30.06,10.0,ENE,8.1,-,N/A,,Unknown,60,2013-07-22 20:36:00
12:56 PM,71.6,44.6,38,30.06,10.0,NNE,8.1,-,N/A,,Unknown,20,2013-07-22 20:56:00
1:16 PM,73.4,46.4,38,30.06,10.0,NE,11.5,-,N/A,,Unknown,50,2013-07-22 21:16:00
1:36 PM,73.4,44.6,36,30.06,10.0,NNE,9.2,-,N/A,,Unknown,30,2013-07-22 21:36:00
1:56 PM,73.4,44.6,36,30.06,10.0,ENE,6.9,-,N/A,,Unknown,70,2013-07-22 21:56:00
2:16 PM,73.4,46.4,38,30.06,10.0,North,5.8,-,N/A,,Unknown,350,2013-07-22 22:16:00
2:36 PM,75.2,46.4,36,30.05,10.0,NNW,8.1,-,N/A,,Unknown,330,2013-07-22 22:36:00
2:56 PM,75.2,46.4,36,30.06,10.0,NW,9.2,-,N/A,,Unknown,310,2013-07-22 22:56:00
3:16 PM,75.2,46.4,36,30.05,10.0,West,10.4,-,N/A,,Unknown,270,2013-07-22 23:16:00
3:36 PM,75.2,46.4,36,30.06,10.0,West,13.8,-,N/A,,Unknown,270,2013-07-22 23:36:00
3:56 PM,73.4,46.4,38,30.06,10.0,West,13.8,-,N/A,,Unknown,270,2013-07-22 23:56:00
4:16 PM,73.4,46.4,38,30.06,10.0,West,13.8,-,N/A,,Unknown,260,2013-07-23 00:16:00
4:36 PM,73.4,46.4,38,30.06,10.0,West,11.5,16.1,N/A,,Unknown,270,2013-07-23 00:36:00
4:56 PM,73.4,46.4,38,30.05,10.0,West,12.7,-,N/A,,Unknown,260,2013-07-23 00:56:00
5:16 PM,75.2,46.4,36,30.05,10.0,West,15.0,-,N/A,,Unknown,270,2013-07-23 01:16:00
5:36 PM,73.4,46.4,38,30.05,10.0,West,13.8,-,N/A,,Unknown,280,2013-07-23 01:36:00
5:56 PM,73.4,46.4,38,30.05,10.0,West,13.8,-,N/A,,Unknown,280,2013-07-23 01:56:00
6:16 PM,73.4,46.4,38,30.05,10.0,West,12.7,-,N/A,,Unknown,280,2013-07-23 02:16:00
6:36 PM,73.4,46.4,38,30.05,10.0,West,11.5,-,N/A,,Unknown,260,2013-07-23 02:36:00
6:56 PM,73.4,48.2,41,30.05,10.0,West,11.5,-,N/A,,Unknown,270,2013-07-23 02:56:00
7:16 PM,73.4,46.4,38,30.05,10.0,West,10.4,-,N/A,,Unknown,270,2013-07-23 03:16:00
7:36 PM,71.6,46.4,41,30.05,10.0,West,11.5,-,N/A,,Unknown,270,2013-07-23 03:36:00
7:56 PM,71.6,46.4,41,30.05,10.0,West,10.4,-,N/A,,Unknown,270,2013-07-23 03:56:00
8:16 PM,71.6,44.6,38,30.06,10.0,West,10.4,-,N/A,,Unknown,280,2013-07-23 04:16:00
8:36 PM,71.6,46.4,41,30.06,10.0,West,6.9,-,N/A,,Unknown,280,2013-07-23 04:36:00
8:56 PM,71.6,46.4,41,30.06,10.0,West,11.5,-,N/A,,Unknown,260,2013-07-23 04:56:00
9:16 PM,69.8,44.6,40,30.06,10.0,West,6.9,-,N/A,,Unknown,270,2013-07-23 05:16:00
9:36 PM,68.0,44.6,43,30.06,10.0,WSW,4.6,-,N/A,,Unknown,250,2013-07-23 05:36:00
9:56 PM,68.0,44.6,43,30.06,10.0,Calm,Calm,-,N/A,,Unknown,0,2013-07-23 05:56:00
10:16 PM,66.2,44.6,46,30.07,10.0,West,3.5,-,N/A,,Unknown,260,2013-07-23 06:16:00
10:36 PM,66.2,44.6,46,30.07,10.0,Calm,Calm,-,N/A,,Unknown,0,2013-07-23 06:36:00
10:56 PM,64.4,42.8,45,30.07,10.0,SW,4.6,-,N/A,,Unknown,220,2013-07-23 06:56:00
11:16 PM,64.4,42.8,45,30.08,10.0,SSW,4.6,-,N/A,,Unknown,200,2013-07-23 07:16:00
11:36 PM,62.6,44.6,52,30.08,10.0,Calm,Calm,-,N/A,,Unknown,0,2013-07-23 07:36:00
11:56 PM,62.6,44.6,52,30.08,10.0,Calm,Calm,-,N/A,,Unknown,0,2013-07-23 07:56:00